TimeCEST,TemperatureF,Dew PointF,Humidity,Sea Level PressureIn,VisibilityMPH,Wind Direction,Wind SpeedMPH,Gust SpeedMPH,PrecipitationIn,Events,Conditions,WindDirDegrees,DateUTC
12:25 AM,44.6,42.8,93,29.86,4.3,East,1.2,-,N/A,,Mostly Cloudy,90,2012-10-08 22:25:00
12:55 AM,44.6,42.8,93,29.86,3.7,NNW,2.3,-,N/A,,Overcast,340,2012-10-08 22:55:00
1:25 AM,44.6,42.8,93,29.86,6.2,North,1.2,-,N/A,,Overcast,350,2012-10-08 23:25:00
1:55 AM,42.8,41.0,93,29.86,-9999.0,NW,1.2,-,N/A,,Mostly Cloudy,320,2012-10-08 23:55:00
2:25 AM,41.0,39.2,93,29.86,1.7,NW,1.2,-,N/A,,Mist,320,2012-10-09 00:25:00
2:55 AM,39.2,37.4,93,29.86,1.3,NNW,2.3,-,N/A,,Mostly Cloudy,330,2012-10-09 00:55:00
3:25 AM,37.4,35.6,93,29.86,-9999.0,NW,1.2,-,N/A,,Partly Cloudy,310,2012-10-09 01:25:00
3:55 AM,37.4,35.6,93,29.86,-9999.0,NW,1.2,-,N/A,,Partly Cloudy,310,2012-10-09 01:55:00
4:25 AM,35.6,35.6,100,29.86,-9999.0,North,1.2,-,N/A,,Mist,350,2012-10-09 02:25:00
4:55 AM,35.6,33.8,93,29.86,2.8,West,2.3,-,N/A,,Mist,280,2012-10-09 02:55:00
5:25 AM,35.6,33.8,93,29.86,5.6,Calm,Calm,-,N/A,,Mist,0,2012-10-09 03:25:00
5:55 AM,33.8,33.8,100,29.86,3.1,WSW,1.2,-,N/A,,Scattered Clouds,250,2012-10-09 03:55:00
6:25 AM,33.8,32.0,93,29.89,4.3,SW,1.2,-,N/A,,Partly Cloudy,230,2012-10-09 04:25:00
6:55 AM,33.8,32.0,93,29.89,3.7,Calm,Calm,-,N/A,,Partly Cloudy,0,2012-10-09 04:55:00
7:25 AM,33.8,32.0,93,29.89,4.3,SW,2.3,-,N/A,,Partly Cloudy,230,2012-10-09 05:25:00
7:55 AM,32.0,30.2,93,29.89,-9999.0,WSW,1.2,-,N/A,,Partly Cloudy,240,2012-10-09 05:55:00
8:25 AM,33.8,32.0,93,29.92,0.2,NW,2.3,-,N/A,Fog,Fog,320,2012-10-09 06:25:00
8:55 AM,35.6,35.6,100,29.92,1.3,West,1.2,-,N/A,,Overcast,280,2012-10-09 06:55:00
9:25 AM,39.2,39.2,100,29.95,1.9,NNW,1.2,-,N/A,,Overcast,340,2012-10-09 07:25:00
9:55 AM,41.0,41.0,100,29.95,-9999.0,WNW,1.2,-,N/A,,Mostly Cloudy,300,2012-10-09 07:55:00
10:25 AM,44.6,42.8,93,29.95,-9999.0,NNW,1.2,-,N/A,,Mist,340,2012-10-09 08:25:00
10:55 AM,48.2,46.4,93,29.98,6.2,North,1.2,-,N/A,,Overcast,350,2012-10-09 08:55:00
11:25 AM,50.0,44.6,82,29.98,6.2,NW,4.6,-,N/A,,Overcast,310,2012-10-09 09:25:00
11:55 AM,51.8,44.6,76,29.98,6.2,NNW,5.8,-,N/A,,Overcast,330,2012-10-09 09:55:00
12:17 PM,51.8,41.0,67,29.98,6.2,NNW,8.1,-,N/A,,Overcast,340,2012-10-09 10:17:00
12:25 PM,51.8,41.0,67,29.98,6.2,North,9.2,-,N/A,,Overcast,350,2012-10-09 10:25:00
12:55 PM,53.6,39.2,58,29.98,6.2,NNW,6.9,-,N/A,,Overcast,340,2012-10-09 10:55:00
1:25 PM,53.6,39.2,58,29.98,6.2,NNW,9.2,-,N/A,,Overcast,340,2012-10-09 11:25:00
1:55 PM,53.6,41.0,62,29.98,6.2,NNW,10.4,-,N/A,,Overcast,340,2012-10-09 11:55:00
2:25 PM,55.4,37.4,51,29.98,6.2,NNW,8.1,-,N/A,,Mostly Cloudy,330,2012-10-09 12:25:00
2:55 PM,53.6,37.4,54,29.98,6.2,NNW,6.9,-,N/A,,Mostly Cloudy,330,2012-10-09 12:55:00
3:25 PM,53.6,37.4,54,30.01,-9999.0,NNW,6.9,-,N/A,,Partly Cloudy,330,2012-10-09 13:25:00
3:55 PM,53.6,35.6,51,30.01,6.2,NW,8.1,-,N/A,,Partly Cloudy,320,2012-10-09 13:55:00
4:04 PM,53.6,37.4,54,30.01,6.2,NNW,8.1,-,N/A,,Overcast,330,2012-10-09 14:04:00
4:25 PM,53.6,39.2,58,30.01,6.2,NNW,8.1,-,N/A,,Overcast,340,2012-10-09 14:25:00
4:55 PM,53.6,37.4,54,30.01,6.2,NW,5.8,-,N/A,,Mostly Cloudy,320,2012-10-09 14:55:00
5:25 PM,53.6,37.4,54,30.01,-9999.0,NW,9.2,-,N/A,,Unknown,310,2012-10-09 15:25:00
5:55 PM,53.6,37.4,54,30.01,6.2,WNW,4.6,-,N/A,,Partly Cloudy,300,2012-10-09 15:55:00
6:25 PM,51.8,39.2,62,30.01,6.2,WNW,4.6,-,N/A,,Unknown,300,2012-10-09 16:25:00
6:33 PM,51.8,41.0,67,30.01,6.2,WNW,4.6,-,N/A,,Partly Cloudy,300,2012-10-09 16:33:00
6:55 PM,48.2,41.0,76,30.01,6.2,WNW,3.5,-,N/A,,Scattered Clouds,300,2012-10-09 16:55:00
7:25 PM,46.4,39.2,76,30.01,6.2,NW,2.3,-,N/A,,Unknown,320,2012-10-09 17:25:00
7:55 PM,42.8,39.2,87,30.01,6.2,North,2.3,-,N/A,,Unknown,350,2012-10-09 17:55:00
8:25 PM,41.0,39.2,93,30.01,6.2,Calm,Calm,-,N/A,,Unknown,0,2012-10-09 18:25:00
8:55 PM,46.4,39.2,76,30.01,6.2,West,1.2,-,N/A,,Unknown,260,2012-10-09 18:55:00
9:25 PM,39.2,37.4,93,30.01,6.2,ESE,2.3,-,N/A,,Unknown,110,2012-10-09 19:25:00
9:55 PM,39.2,37.4,93,30.01,6.2,East,1.2,-,N/A,,Unknown,90,2012-10-09 19:55:00
10:25 PM,37.4,35.6,93,30.04,6.2,East,1.2,-,N/A,,Unknown,90,2012-10-09 20:25:00
10:28 PM,37.4,35.6,93,30.04,6.2,ESE,1.2,-,N/A,,Unknown,110,2012-10-09 20:28:00
10:55 PM,37.4,35.6,93,30.04,6.2,SE,1.2,-,N/A,,Unknown,130,2012-10-09 20:55:00
11:25 PM,35.6,33.8,93,30.04,6.2,SE,1.2,-,N/A,,Unknown,130,2012-10-09 21:25:00
11:55 PM,35.6,33.8,93,30.04,6.2,South,1.2,-,N/A,,Unknown,190,2012-10-09 21:55:00